This is the latest recevied weather packets stored in our database for station/object HS2LXA-WX. If no packets are shown the sender has not sent any weather packets the latest 10 day(s).
| Time | Temp. | Humidity | Pressure | Rain* | Wind** | Luminosity | Snow |
|---|---|---|---|---|---|---|---|
| 1778220256 | 33.33° C | 79% | 1013.1 hPa | 0 mm | - | - | - |
| 1778219656 | 33.89° C | 75% | 1013.1 hPa | 0 mm | - | - | - |
| 1778219055 | 33.33° C | 76% | 1013.1 hPa | 0 mm | - | - | - |
| 1778218455 | 33.33° C | 76% | 1013.1 hPa | 0 mm | - | - | - |
| 1778217856 | 33.33° C | 76% | 1013.1 hPa | 0 mm | - | - | - |
| 1778217253 | 33.33° C | 74% | 1013.1 hPa | 0 mm | - | - | - |
| 1778216652 | 33.33° C | 75% | 1013.1 hPa | 0 mm | - | - | - |
| 1778215489 | 32.78° C | 78% | 1013.2 hPa | 0 mm | - | - | - |
| 1778214889 | 32.78° C | 80% | 1013.1 hPa | 0 mm | - | - | - |
| 1778214290 | 32.78° C | 78% | 1013.1 hPa | 0 mm | - | - | - |
| 1778213688 | 32.78° C | 77% | 1013.2 hPa | 0 mm | - | - | - |
| 1778213088 | 32.78° C | 78% | 1013.1 hPa | 0 mm | - | - | - |
| 1778212487 | 32.78° C | 78% | 1013.1 hPa | 0 mm | - | - | - |
| 1778211889 | 32.78° C | 78% | 1013.2 hPa | 0 mm | - | - | - |
| 1778211288 | 32.78° C | 80% | 1013.1 hPa | 0 mm | - | - | - |
| 1778210165 | 32.78° C | 79% | 1013.1 hPa | 0 mm | - | - | - |
| 1778209565 | 32.22° C | 78% | 1013.1 hPa | 0 mm | - | - | - |
| 1778208934 | 32.22° C | 80% | 1013.2 hPa | 0 mm | - | - | - |
| 1778208334 | 32.22° C | 78% | 1013.1 hPa | 0 mm | - | - | - |
| 1778207734 | 31.67° C | 79% | 1013.2 hPa | 0 mm | - | - | - |
| 1778207134 | 31.11° C | 82% | 1013.2 hPa | 0 mm | - | - | - |
| 1778206535 | 31.11° C | 83% | 1013.1 hPa | 0 mm | - | - | - |
| 1778205101 | 31.11° C | 85% | 1013.2 hPa | 0 mm | - | - | - |
| 1778204501 | 30.56° C | 86% | 1013.2 hPa | 0 mm | - | - | - |
| 1778203901 | 31.11° C | 85% | 1013.1 hPa | 0 mm | - | - | - |
* Rain latest hour (hover to see other rain measurements)
** Current wind speed in m/s (hover to see current wind gust speed)